Simultaneous Nadir Overpasses (SNOs) Predictions

Prediction of SNOs over PacNW region [( 10.00, 139.50) to ( 22.70, 165.60)] between AQUA and NPP Satellites:

Table of predicted SNOs over PacNW region for the next 30.0 days since TLE Epoch: 10/27/2012
Index Date (AQUA) Time (AQUA) AQUA Lat,Lon Date (NPP) Time (NPP) NPP Lat,Lon Distance(km) Time Diff (sec)
1 11/02/2012 15:09:59 20.88, 159.44 11/02/2012 15:09:29 21.37, 156.80 278.43 30
2 11/10/2012 15:58:51 22.59, 147.50 11/10/2012 15:59:47 23.23, 144.56 309.92 56
3 11/18/2012 15:09:33 21.93, 159.72 11/18/2012 15:09:21 22.46, 157.03 283.36 12




NCC Satellite Simultaneous Nadir Overpasses (SNOs) Prediction Service
